Вернуться в каталог

STARLINK-6330

АктивенСвязьVLEO
NORAD 57239·PAYLOAD·🇺🇸 United States

Запущен Jul 7, 2023 с Vandenberg Space Force Base

Loading…

Ближайшие Пролёты (ближайшие 24 часа)

TLE

СвежийSource: CelesTrak SupGP

Эпоха: Sep 15, 2026, 01:41 UTC

1 57239C 23094X   26258.07062500 -.00065428  00000+0 -23697-2 0  2580
2 57239  43.0021  40.9204 0001525 266.0297  34.0443 15.27611954    12

Отслеживайте STARLINK-6330 в реальном времени с AllMySat

Download on the App Store